Time,TemperatureF,DewpointF,PressureIn,WindDirection,WindDirectionDegrees,WindSpeedMPH,WindSpeedGustMPH,Humidity,HourlyPrecipIn,Conditions,Clouds,dailyrainin,SolarRadiationWatts/m^2,SoftwareType,DateUTC
2013-03-22 00:02:00,11.0,-1.0,-100.00,NE,55,3.0,5.0,57,0.00,,,0.03,0.000000,,2013-03-22 08:02:00,
2013-03-22 00:12:00,11.0,-1.0,-100.00,NE,55,3.0,5.0,57,0.00,,,0.03,0.000000,,2013-03-22 08:12:00,
2013-03-22 00:22:00,11.0,-1.0,-100.00,NE,55,3.0,5.0,57,0.00,,,0.03,0.000000,,2013-03-22 08:22:00,
2013-03-22 00:52:00,11.0,-1.0,-100.00,NNE,32,3.0,4.0,58,0.00,,,0.03,0.000000,,2013-03-22 08:52:00,
2013-03-22 01:02:00,11.0,-1.0,-100.00,NNE,32,3.0,4.0,58,0.00,,,0.03,0.000000,,2013-03-22 09:02:00,
2013-03-22 01:12:00,11.0,-1.0,-100.00,NNE,32,3.0,4.0,58,0.00,,,0.03,0.000000,,2013-03-22 09:12:00,
2013-03-22 01:22:00,11.0,-1.0,-100.00,NNE,32,3.0,4.0,58,0.00,,,0.03,0.000000,,2013-03-22 09:22:00,
2013-03-22 01:53:00,11.0,0.0,-100.00,ENE,70,3.0,5.0,61,0.00,,,-99.99,0.000000,,2013-03-22 09:53:00,
2013-03-22 02:03:00,11.0,0.0,-100.00,ENE,70,3.0,5.0,61,0.00,,,-99.99,0.000000,,2013-03-22 10:03:00,
2013-03-22 02:12:00,11.0,0.0,-100.00,ENE,70,3.0,5.0,61,0.00,,,-99.99,0.000000,,2013-03-22 10:12:00,
2013-03-22 02:22:00,11.0,0.0,-100.00,ENE,70,3.0,5.0,61,0.00,,,-99.99,0.000000,,2013-03-22 10:22:00,
2013-03-22 02:52:00,12.0,0.0,-100.00,North,354,2.0,6.0,57,0.00,,,0.03,0.000000,,2013-03-22 10:52:00,
2013-03-22 03:02:00,12.0,0.0,-100.00,North,354,2.0,6.0,57,0.00,,,0.03,0.000000,,2013-03-22 11:02:00,
2013-03-22 03:12:00,12.0,0.0,-100.00,North,354,2.0,6.0,57,0.00,,,0.03,0.000000,,2013-03-22 11:12:00,
2013-03-22 03:22:00,12.0,0.0,-100.00,North,354,2.0,6.0,57,0.00,,,0.03,0.000000,,2013-03-22 11:22:00,
2013-03-22 03:52:00,12.0,2.0,-100.00,East,97,4.0,6.0,62,0.00,,,0.03,0.000000,,2013-03-22 11:52:00,
2013-03-22 04:02:00,12.0,2.0,-100.00,East,97,4.0,6.0,62,0.00,,,0.03,0.000000,,2013-03-22 12:02:00,
2013-03-22 04:12:00,12.0,2.0,-100.00,East,97,4.0,6.0,62,0.00,,,0.03,0.000000,,2013-03-22 12:12:00,
2013-03-22 04:22:00,12.0,2.0,-100.00,East,97,4.0,6.0,62,0.00,,,0.03,0.000000,,2013-03-22 12:22:00,
2013-03-22 04:52:00,11.0,-2.0,-100.00,ENE,77,4.0,7.0,55,0.00,,,0.03,0.000000,,2013-03-22 12:52:00,
2013-03-22 05:02:00,11.0,-2.0,-100.00,ENE,77,4.0,7.0,55,0.00,,,0.03,0.000000,,2013-03-22 13:02:00,
2013-03-22 05:12:00,11.0,-2.0,-100.00,ENE,77,4.0,7.0,55,0.00,,,0.03,0.000000,,2013-03-22 13:12:00,
2013-03-22 05:22:00,11.0,-2.0,-100.00,ENE,77,4.0,7.0,55,0.00,,,0.03,0.000000,,2013-03-22 13:22:00,
2013-03-22 05:52:00,11.0,-1.0,-100.00,East,93,4.0,6.0,57,0.00,,,0.03,0.000000,,2013-03-22 13:52:00,
2013-03-22 06:02:00,11.0,-1.0,-100.00,East,93,4.0,6.0,57,0.00,,,0.03,0.000000,,2013-03-22 14:02:00,
2013-03-22 06:12:00,11.0,-1.0,-100.00,East,93,4.0,6.0,57,0.00,,,0.03,0.000000,,2013-03-22 14:12:00,
2013-03-22 06:21:00,11.0,-1.0,-100.00,East,93,4.0,6.0,57,0.00,,,0.03,0.000000,,2013-03-22 14:21:00,
2013-03-22 06:52:00,13.0,1.0,-100.00,East,101,4.0,6.0,59,0.00,,,0.03,0.000000,,2013-03-22 14:52:00,
2013-03-22 07:02:00,13.0,1.0,-100.00,East,101,4.0,6.0,59,0.00,,,0.03,0.000000,,2013-03-22 15:02:00,
2013-03-22 07:12:00,13.0,1.0,-100.00,East,101,4.0,6.0,59,0.00,,,0.03,0.000000,,2013-03-22 15:12:00,
2013-03-22 07:22:00,13.0,1.0,-100.00,East,101,4.0,6.0,59,0.00,,,0.03,0.000000,,2013-03-22 15:22:00,
2013-03-22 07:53:00,15.0,-1.0,-100.00,East,87,5.0,9.0,49,0.00,,,0.03,0.000000,,2013-03-22 15:53:00,
2013-03-22 08:02:00,15.0,-1.0,-100.00,East,87,5.0,9.0,49,0.00,,,0.03,0.000000,,2013-03-22 16:02:00,
2013-03-22 08:13:00,15.0,-1.0,-100.00,East,87,5.0,9.0,49,0.00,,,0.03,0.000000,,2013-03-22 16:13:00,
2013-03-22 08:22:00,15.0,-1.0,-100.00,East,87,5.0,9.0,49,0.00,,,0.03,0.000000,,2013-03-22 16:22:00,
2013-03-22 08:52:00,14.0,-2.0,-100.00,ENE,65,4.0,8.0,49,0.00,,,0.03,10.000000,,2013-03-22 16:52:00,
2013-03-22 09:03:00,14.0,-2.0,-100.00,ENE,65,4.0,8.0,49,0.00,,,0.03,10.000000,,2013-03-22 17:03:00,
2013-03-22 09:12:00,14.0,-2.0,-100.00,ENE,65,4.0,8.0,49,0.00,,,0.03,10.000000,,2013-03-22 17:12:00,
2013-03-22 09:22:00,14.0,-2.0,-100.00,ENE,65,4.0,8.0,49,0.00,,,0.03,10.000000,,2013-03-22 17:22:00,
2013-03-22 09:53:00,16.0,-1.0,-100.00,East,98,5.0,8.0,47,0.00,,,0.03,48.000000,,2013-03-22 17:53:00,
2013-03-22 10:02:00,16.0,-1.0,-100.00,East,98,5.0,8.0,47,0.00,,,0.03,48.000000,,2013-03-22 18:02:00,
2013-03-22 10:12:00,16.0,-1.0,-100.00,East,98,5.0,8.0,47,0.00,,,0.03,48.000000,,2013-03-22 18:12:00,
2013-03-22 10:22:00,16.0,-1.0,-100.00,East,98,5.0,8.0,47,0.00,,,0.03,48.000000,,2013-03-22 18:22:00,
2013-03-22 10:52:00,20.0,1.0,-100.00,East,99,6.0,10.0,42,0.00,,,0.03,110.000000,,2013-03-22 18:52:00,
2013-03-22 11:02:00,20.0,1.0,-100.00,East,99,6.0,10.0,42,0.00,,,0.03,110.000000,,2013-03-22 19:02:00,
2013-03-22 11:12:00,20.0,1.0,-100.00,East,99,6.0,10.0,42,0.00,,,0.03,110.000000,,2013-03-22 19:12:00,
2013-03-22 11:22:00,20.0,1.0,-100.00,East,99,6.0,10.0,42,0.00,,,0.03,110.000000,,2013-03-22 19:22:00,
2013-03-22 11:52:00,23.0,1.0,-100.00,ESE,104,6.0,10.0,38,0.00,,,0.03,195.000000,,2013-03-22 19:52:00,
2013-03-22 12:02:00,23.0,1.0,-100.00,ESE,104,6.0,10.0,38,0.00,,,0.03,195.000000,,2013-03-22 20:02:00,
2013-03-22 12:12:00,23.0,1.0,-100.00,ESE,104,6.0,10.0,38,0.00,,,0.03,195.000000,,2013-03-22 20:12:00,
2013-03-22 12:22:00,23.0,1.0,-100.00,ESE,104,6.0,10.0,38,0.00,,,0.03,195.000000,,2013-03-22 20:22:00,
2013-03-22 12:52:00,29.0,6.0,-100.00,SE,124,5.0,12.0,37,0.00,,,0.03,289.000000,,2013-03-22 20:52:00,
2013-03-22 13:02:00,29.0,6.0,-100.00,SE,124,5.0,12.0,37,0.00,,,0.03,289.000000,,2013-03-22 21:02:00,
2013-03-22 13:12:00,29.0,6.0,-100.00,SE,124,5.0,12.0,37,0.00,,,0.03,289.000000,,2013-03-22 21:12:00,
2013-03-22 13:22:00,29.0,6.0,-100.00,SE,124,5.0,12.0,37,0.00,,,0.03,289.000000,,2013-03-22 21:22:00,
2013-03-22 13:53:00,30.0,4.0,-100.00,SE,137,6.0,14.0,33,0.00,,,0.03,370.000000,,2013-03-22 21:53:00,
2013-03-22 14:02:00,30.0,4.0,-100.00,SE,137,6.0,14.0,33,0.00,,,0.03,370.000000,,2013-03-22 22:02:00,
2013-03-22 14:12:00,30.0,4.0,-100.00,SE,137,6.0,14.0,33,0.00,,,0.03,370.000000,,2013-03-22 22:12:00,
2013-03-22 14:22:00,30.0,4.0,-100.00,SE,137,6.0,14.0,33,0.00,,,0.03,370.000000,,2013-03-22 22:22:00,
2013-03-22 14:53:00,31.0,5.0,-100.00,SSE,148,7.0,13.0,33,0.00,,,0.01,297.000000,,2013-03-22 22:53:00,
2013-03-22 15:02:00,31.0,5.0,-100.00,SSE,148,7.0,13.0,33,0.00,,,0.01,297.000000,,2013-03-22 23:02:00,
2013-03-22 15:12:00,31.0,5.0,-100.00,SSE,148,7.0,13.0,33,0.00,,,0.01,297.000000,,2013-03-22 23:12:00,
2013-03-22 15:22:00,31.0,5.0,-100.00,SSE,148,7.0,13.0,33,0.00,,,0.01,297.000000,,2013-03-22 23:22:00,
2013-03-22 15:52:00,32.0,7.0,-100.00,SSE,152,7.0,12.0,35,0.00,,,0.00,224.000000,,2013-03-22 23:52:00,
2013-03-22 16:02:00,32.0,7.0,-100.00,SSE,152,7.0,12.0,35,0.00,,,0.00,224.000000,,2013-03-23 00:02:00,
2013-03-22 16:12:00,32.0,7.0,-100.00,SSE,152,7.0,12.0,35,0.00,,,0.00,224.000000,,2013-03-23 00:12:00,
2013-03-22 16:22:00,32.0,7.0,-100.00,SSE,152,7.0,12.0,35,0.00,,,0.00,224.000000,,2013-03-23 00:22:00,
2013-03-22 16:52:00,32.0,8.0,-100.00,SSE,153,9.0,14.0,36,0.00,,,0.00,211.000000,,2013-03-23 00:52:00,
2013-03-22 17:03:00,32.0,8.0,-100.00,SSE,153,9.0,14.0,36,0.00,,,0.00,211.000000,,2013-03-23 01:03:00,
2013-03-22 17:11:00,32.0,8.0,-100.00,SSE,153,9.0,14.0,36,0.00,,,0.00,211.000000,,2013-03-23 01:11:00,
2013-03-22 17:22:00,32.0,8.0,-100.00,SSE,153,9.0,14.0,36,0.00,,,0.00,211.000000,,2013-03-23 01:22:00,
2013-03-22 17:52:00,33.0,10.0,-100.00,SE,143,6.0,12.0,37,0.00,,,0.00,159.000000,,2013-03-23 01:52:00,
2013-03-22 18:02:00,33.0,10.0,-100.00,SE,143,6.0,12.0,37,0.00,,,0.00,159.000000,,2013-03-23 02:02:00,
2013-03-22 18:12:00,33.0,10.0,-100.00,SE,143,6.0,12.0,37,0.00,,,0.00,159.000000,,2013-03-23 02:12:00,
2013-03-22 18:22:00,33.0,10.0,-100.00,SE,143,6.0,12.0,37,0.00,,,0.00,159.000000,,2013-03-23 02:22:00,
2013-03-22 18:52:00,33.0,11.0,-100.00,SE,142,6.0,13.0,39,0.00,,,0.00,146.000000,,2013-03-23 02:52:00,
2013-03-22 19:02:00,33.0,11.0,-100.00,SE,142,6.0,13.0,39,0.00,,,0.00,146.000000,,2013-03-23 03:02:00,
2013-03-22 19:12:00,33.0,11.0,-100.00,SE,142,6.0,13.0,39,0.00,,,0.00,146.000000,,2013-03-23 03:12:00,
2013-03-22 19:22:00,33.0,11.0,-100.00,SE,142,6.0,13.0,39,0.00,,,0.00,146.000000,,2013-03-23 03:22:00,
2013-03-22 19:53:00,31.0,11.0,-100.00,SE,133,4.0,10.0,42,0.00,,,0.00,57.000000,,2013-03-23 03:53:00,
2013-03-22 20:02:00,31.0,11.0,-100.00,SE,133,4.0,10.0,42,0.00,,,0.00,57.000000,,2013-03-23 04:02:00,
2013-03-22 20:12:00,31.0,11.0,-100.00,SE,133,4.0,10.0,42,0.00,,,0.00,57.000000,,2013-03-23 04:12:00,
2013-03-22 20:22:00,31.0,11.0,-100.00,SE,133,4.0,10.0,42,0.00,,,0.00,57.000000,,2013-03-23 04:22:00,
2013-03-22 20:53:00,29.0,10.0,-100.00,SE,143,3.0,11.0,44,0.00,,,0.00,10.000000,,2013-03-23 04:53:00,
2013-03-22 21:02:00,29.0,10.0,-100.00,SE,143,3.0,11.0,44,0.00,,,0.00,10.000000,,2013-03-23 05:02:00,
2013-03-22 21:12:00,29.0,10.0,-100.00,SE,143,3.0,11.0,44,0.00,,,0.00,10.000000,,2013-03-23 05:12:00,
2013-03-22 21:22:00,29.0,10.0,-100.00,SE,143,3.0,11.0,44,0.00,,,0.00,10.000000,,2013-03-23 05:22:00,
2013-03-22 21:52:00,26.0,10.0,-100.00,ESE,107,1.0,9.0,50,0.00,,,0.00,1.000000,,2013-03-23 05:52:00,
2013-03-22 22:02:00,26.0,10.0,-100.00,ESE,107,1.0,9.0,50,0.00,,,0.00,1.000000,,2013-03-23 06:02:00,
2013-03-22 22:12:00,26.0,10.0,-100.00,ESE,107,1.0,9.0,50,0.00,,,0.00,1.000000,,2013-03-23 06:12:00,
2013-03-22 22:22:00,26.0,10.0,-100.00,ESE,107,1.0,9.0,50,0.00,,,0.00,1.000000,,2013-03-23 06:22:00,
2013-03-22 22:52:00,25.0,11.0,-100.00,WSW,253,4.0,7.0,54,0.00,,,0.00,0.000000,,2013-03-23 06:52:00,
2013-03-22 23:02:00,25.0,11.0,-100.00,WSW,253,4.0,7.0,54,0.00,,,0.00,0.000000,,2013-03-23 07:02:00,
2013-03-22 23:12:00,25.0,11.0,-100.00,WSW,253,4.0,7.0,54,0.00,,,0.00,0.000000,,2013-03-23 07:12:00,
2013-03-22 23:22:00,25.0,11.0,-100.00,WSW,253,4.0,7.0,54,0.00,,,0.00,0.000000,,2013-03-23 07:22:00,
2013-03-22 23:52:00,26.0,13.0,-100.00,SSE,148,3.0,4.0,57,0.00,,,0.00,0.000000,,2013-03-23 07:52:00,